Meteo Giornale » Osservazioni meteo Germania » Hahn

ore: 23:50 - Osservazioni Meteo Hahn
Lat. 49° 57' N Lon. 7° 16' E Alt. 491 metri s.l.m.

sereno Europe/Berlin

23 °C

Sereno

Temp. 24 Ore

18 °C

29 °C

Sud/Sud-Est

9.3 Km/h

Dew point 17 °C

Umidità 68 %

Visibilità  10 Km

Il sole sorge alle ore 05:19

Il sole tramonta alle ore 21:44

Data e Ora Cielo e Fenomeni T °C DP °C Um. % Pres. hPa Vis. km Vento km/h
Ieri h: 23:50 sereno Sereno 23 17 68 1015 10 S/SE 9.3
Ieri h: 23:20 sereno Sereno 24 17 64 1015 10 SE 9.3
Ieri h: 22:50 sereno Sereno 24 17 64 1015 10 S 7.4
Ieri h: 22:20 sereno Sereno 23 17 68 1015 10 S/SO 7.4
Ieri h: 21:50 sereno Sereno 25 18 65 1015 10 S/SE 9.3
Ieri h: 21:20 sereno Sereno 25 18 65 1014 10 S/SE 9.3
Ieri h: 20:50 sereno Sereno 26 18 61 1014 10 S 9.3
Ieri h: 20:20 sereno Sereno 27 18 57 1014 10 S/SE 11.1
Ieri h: 19:50 sereno Sereno 27 17 54 1014 10 S/SE 13
Ieri h: 19:20 sereno Sereno 28 18 54 1014 10 S/SE 13
Ieri h: 18:50 sereno Sereno 27 18 57 1014 10 S/SE 13
Ieri h: 18:20 nuvoloso Nuvoloso 27 18 57 1014 10 S/SE 13
Ieri h: 17:50 poco_nuvoloso Poco Nuvoloso 28 18 54 1014 10 S/SE 13
Ieri h: 17:20 poco_nuvoloso Poco Nuvoloso 29 19 54 1014 10 SE 11.1
Ieri h: 16:50 sereno Sereno 28 19 58 1014 10 SE 14.8
Ieri h: 16:20 sereno Sereno 28 18 54 1014 10 S 13
Ieri h: 15:50 nuvoloso Nuvoloso 29 18 51 1014 10 O/SO 9.3
Ieri h: 15:20 sereno Sereno 29 17 48 1014 10 O/SO 13
Ieri h: 14:50 sereno Sereno 28 17 51 1014 10 O 13
Ieri h: 14:20 sereno Sereno 28 17 51 1014 10 SO 11.1
Ieri h: 13:50 sereno Sereno 28 18 54 1014 10 S 16.7
Ieri h: 13:20 sereno Sereno 28 18 54 1014 10 S/SE 20.3
Ieri h: 12:50 sereno Sereno 27 19 61 1014 10 SE 22.2
Ieri h: 12:20 sereno Sereno 26 18 61 1014 10 SE 20.3
Ieri h: 11:50 sereno Sereno 26 18 61 1014 10 S/SE 22.2
Ieri h: 11:20 sereno Sereno 26 17 57 1014 10 S/SE 18.5
Ieri h: 10:50 sereno Sereno 25 17 61 1014 10 SE 18.5
Ieri h: 10:20 sereno Sereno 24 17 64 1014 10 SE 16.7
Ieri h: 09:50 sereno Sereno 24 16 60 1014 10 SE 16.7
Ieri h: 09:20 sereno Sereno 23 15 60 1014 10 SE 18.5
Ieri h: 08:50 sereno Sereno 22 16 68 1014 10 SE 16.7
Ieri h: 08:20 sereno Sereno 21 15 68 1014 10 SE 16.7
Ieri h: 07:50 sereno Sereno 21 14 64 1014 10 S/SE 16.7
Ieri h: 07:20 sereno Sereno 19 14 72 1013 10 S/SE 18.5
Ieri h: 06:50 sereno Sereno 19 14 72 1013 10 S/SE 16.7
Ieri h: 06:20 sereno Sereno 19 13 68 1013 10 SE 14.8
Ieri h: 05:50 sereno Sereno 19 13 68 1013 10 S/SE 16.7
Ieri h: 05:20 sereno Sereno 18 13 72 1013 10 S/SE 14.8
Ieri h: 04:50 sereno Sereno 19 13 68 1013 10 S/SE 14.8
Ieri h: 04:20 sereno Sereno 18 13 72 1013 10 SE 14.8
Ieri h: 03:50 sereno Sereno 19 14 72 1013 10 S/SE 13
Ieri h: 03:20 sereno Sereno 20 13 64 1013 10 S/SE 13
Ieri h: 02:50 sereno Sereno 19 14 72 1013 10 S/SE 11.1
Ieri h: 01:50 sereno Sereno 19 14 72 1014 10 SE 14.8
Ieri h: 01:20 sereno Sereno 20 14 68 1014 10 SE 13
Ieri h: 00:50 sereno Sereno 20 14 68 1014 10 SE 11.1